Time,TemperatureF,DewpointF,PressureIn,WindDirection,WindDirectionDegrees,WindSpeedMPH,WindSpeedGustMPH,Humidity,HourlyPrecipIn,Conditions,Clouds,dailyrainin,SolarRadiationWatts/m^2,SoftwareType,DateUTC
2013-08-22 00:04:00,52.4,48.0,29.68,ESE,113,7.7,11.5,85,0.00,CLR,,0.00,0.0,WeatherDisplay:10.37,2013-08-21 12:04:00,
2013-08-22 00:09:00,52.3,47.9,29.68,ESE,107,8.2,17.3,85,0.00,CLR,,0.00,0.0,WeatherDisplay:10.37,2013-08-21 12:09:00,
2013-08-22 00:14:00,52.2,47.8,29.68,NE,40,6.3,17.3,85,0.00,CLR,,0.00,0.0,WeatherDisplay:10.37,2013-08-21 12:14:00,
2013-08-22 00:19:00,52.2,48.1,29.68,ENE,67,9.9,18.4,86,0.00,CLR,,0.00,0.0,WeatherDisplay:10.37,2013-08-21 12:19:00,
2013-08-22 00:24:00,52.1,48.0,29.68,NE,54,6.2,15.0,86,0.00,CLR,,0.00,0.0,WeatherDisplay:10.37,2013-08-21 12:24:00,
2013-08-22 00:29:00,52.0,48.3,29.68,East,84,8.0,16.0,87,0.00,CLR,,0.00,0.0,WeatherDisplay:10.37,2013-08-21 12:29:00,
2013-08-22 00:34:00,52.0,48.3,29.68,ENE,59,7.8,15.0,87,0.00,CLR,,0.00,0.0,WeatherDisplay:10.37,2013-08-21 12:34:00,
2013-08-22 00:39:00,51.9,48.2,29.67,East,82,8.8,10.0,87,0.00,CLR,,0.00,0.0,WeatherDisplay:10.37,2013-08-21 12:39:00,
2013-08-22 00:44:00,51.8,48.1,29.67,NE,45,5.2,12.7,87,0.00,CLR,,0.00,0.0,WeatherDisplay:10.37,2013-08-21 12:44:00,
2013-08-22 00:49:00,51.8,48.1,29.67,ENE,69,7.1,15.0,87,0.00,CLR,,0.00,0.0,WeatherDisplay:10.37,2013-08-21 12:49:00,
2013-08-22 00:54:00,51.8,48.1,29.67,ENE,71,7.5,20.7,87,0.00,CLR,,0.00,0.0,WeatherDisplay:10.37,2013-08-21 12:54:00,
2013-08-22 00:59:00,51.8,48.1,29.67,East,82,7.3,18.4,87,0.00,CLR,,0.00,0.0,WeatherDisplay:10.37,2013-08-21 12:59:00,
2013-08-22 01:04:00,51.8,48.4,29.67,NE,55,5.8,19.6,88,0.00,CLR,,0.00,0.0,WeatherDisplay:10.37,2013-08-21 13:04:00,
2013-08-22 01:09:00,51.8,48.4,29.67,NNE,28,5.2,19.6,88,0.00,CLR,,0.00,0.0,WeatherDisplay:10.37,2013-08-21 13:09:00,
2013-08-22 01:14:00,51.8,48.4,29.67,NE,42,9.8,12.7,88,0.00,CLR,,0.00,0.0,WeatherDisplay:10.37,2013-08-21 13:14:00,
2013-08-22 01:19:00,51.8,48.4,29.67,WNW,298,4.7,11.5,88,0.00,CLR,,0.00,0.0,WeatherDisplay:10.37,2013-08-21 13:19:00,
2013-08-22 01:24:00,51.7,48.3,29.67,NE,54,4.6,5.0,88,0.00,CLR,,0.00,0.0,WeatherDisplay:10.37,2013-08-21 13:24:00,
2013-08-22 01:29:00,51.6,48.2,29.67,ESE,113,8.0,12.7,88,0.00,CLR,,0.00,0.0,WeatherDisplay:10.37,2013-08-21 13:29:00,
2013-08-22 01:34:00,51.6,48.2,29.66,ENE,71,8.1,11.5,88,0.00,CLR,,0.00,0.0,WeatherDisplay:10.37,2013-08-21 13:34:00,
2013-08-22 01:39:00,51.6,48.2,29.66,East,81,5.4,5.4,88,0.00,CLR,,0.00,0.0,WeatherDisplay:10.37,2013-08-21 13:39:00,
2013-08-22 01:44:00,51.8,48.4,29.67,NE,49,13.2,19.6,88,0.00,CLR,,0.00,0.0,WeatherDisplay:10.37,2013-08-21 13:44:00,
2013-08-22 01:49:00,51.8,48.4,29.66,ENE,69,8.8,16.1,88,0.00,CLR,,0.00,0.0,WeatherDisplay:10.37,2013-08-21 13:49:00,
2013-08-22 01:54:00,51.9,48.5,29.66,ENE,64,7.8,16.1,88,0.00,CLR,,0.00,0.0,WeatherDisplay:10.37,2013-08-21 13:54:00,
2013-08-22 01:59:00,51.9,48.2,29.66,NE,39,6.4,11.5,87,0.00,CLR,,0.00,0.0,WeatherDisplay:10.37,2013-08-21 13:59:00,
2013-08-22 02:04:00,52.0,48.3,29.66,ENE,65,8.4,16.1,87,0.00,CLR,,0.00,0.0,WeatherDisplay:10.37,2013-08-21 14:04:00,
2013-08-22 02:09:00,52.1,48.3,29.66,ENE,67,7.5,11.5,87,0.00,CLR,,0.00,0.0,WeatherDisplay:10.37,2013-08-21 14:09:00,
2013-08-22 02:14:00,52.0,48.3,29.66,NE,55,5.9,11.5,87,0.00,CLR,,0.00,0.0,WeatherDisplay:10.37,2013-08-21 14:14:00,
2013-08-22 02:19:00,52.1,48.3,29.66,ENE,63,5.2,11.5,87,0.00,CLR,,0.00,0.0,WeatherDisplay:10.37,2013-08-21 14:19:00,
2013-08-22 02:24:00,52.1,48.3,29.66,NE,49,8.4,15.0,87,0.00,CLR,,0.00,0.0,WeatherDisplay:10.37,2013-08-21 14:24:00,
2013-08-22 02:29:00,52.0,48.6,29.66,NE,36,8.7,17.3,88,0.00,CLR,,0.00,0.0,WeatherDisplay:10.37,2013-08-21 14:29:00,
2013-08-22 02:34:00,52.1,48.7,29.66,NE,55,9.3,18.4,88,0.00,CLR,,0.00,0.0,WeatherDisplay:10.37,2013-08-21 14:34:00,
2013-08-22 02:39:00,52.0,48.6,29.66,ENE,74,7.0,13.8,88,0.00,CLR,,0.00,0.0,WeatherDisplay:10.37,2013-08-21 14:39:00,
2013-08-22 02:44:00,51.9,48.5,29.66,NE,42,6.6,12.7,88,0.00,CLR,,0.00,0.0,WeatherDisplay:10.37,2013-08-21 14:44:00,
2013-08-22 02:49:00,51.9,48.8,29.65,East,79,6.0,13.8,89,0.00,CLR,,0.00,0.0,WeatherDisplay:10.37,2013-08-21 14:49:00,
2013-08-22 02:54:00,51.9,48.8,29.65,ESE,108,4.8,11.0,89,0.00,CLR,,0.00,0.0,WeatherDisplay:10.37,2013-08-21 14:54:00,
2013-08-22 02:59:00,51.9,48.8,29.65,NE,48,4.8,11.5,89,0.00,CLR,,0.00,0.0,WeatherDisplay:10.37,2013-08-21 14:59:00,
2013-08-22 03:04:00,51.9,48.8,29.65,East,83,4.3,9.2,89,0.00,CLR,,0.00,0.0,WeatherDisplay:10.37,2013-08-21 15:04:00,
2013-08-22 03:09:00,51.9,48.8,29.65,NE,56,6.4,17.3,89,0.00,CLR,,0.00,0.0,WeatherDisplay:10.37,2013-08-21 15:09:00,
2013-08-22 03:14:00,52.0,48.9,29.65,East,83,6.2,16.0,89,0.00,CLR,,0.00,0.0,WeatherDisplay:10.37,2013-08-21 15:14:00,
2013-08-22 03:19:00,52.0,48.9,29.64,NE,51,6.0,17.3,89,0.00,CLR,,0.00,0.0,WeatherDisplay:10.37,2013-08-21 15:19:00,
2013-08-22 03:24:00,52.0,48.6,29.64,ENE,71,9.5,16.0,88,0.00,CLR,,0.00,0.0,WeatherDisplay:10.37,2013-08-21 15:24:00,
2013-08-22 03:29:00,52.1,48.7,29.64,SE,137,5.6,10.4,88,0.00,CLR,,0.00,0.0,WeatherDisplay:10.37,2013-08-21 15:29:00,
2013-08-22 03:34:00,52.1,48.7,29.64,NE,38,7.4,11.5,88,0.00,CLR,,0.00,0.0,WeatherDisplay:10.37,2013-08-21 15:34:00,
2013-08-22 03:39:00,52.2,48.8,29.64,ENE,67,6.2,11.5,88,0.00,CLR,,0.00,0.0,WeatherDisplay:10.37,2013-08-21 15:39:00,
2013-08-22 03:44:00,52.3,48.9,29.64,ENE,65,9.8,16.1,88,0.00,CLR,,0.00,0.0,WeatherDisplay:10.37,2013-08-21 15:44:00,
2013-08-22 03:49:00,52.3,48.9,29.64,East,81,5.3,15.0,88,0.00,CLR,,0.00,0.0,WeatherDisplay:10.37,2013-08-21 15:49:00,
2013-08-22 03:54:00,52.3,48.9,29.64,East,99,5.5,17.3,88,0.00,CLR,,0.00,0.0,WeatherDisplay:10.37,2013-08-21 15:54:00,
2013-08-22 03:59:00,52.2,48.8,29.64,ESE,117,7.7,11.5,88,0.00,CLR,,0.00,0.0,WeatherDisplay:10.37,2013-08-21 15:59:00,
2013-08-22 04:04:00,52.2,49.1,29.64,NNE,15,7.4,11.5,89,0.00,CLR,,0.00,0.0,WeatherDisplay:10.37,2013-08-21 16:04:00,
2013-08-22 04:09:00,52.3,49.2,29.64,ENE,59,7.6,13.8,89,0.00,CLR,,0.00,0.0,WeatherDisplay:10.37,2013-08-21 16:09:00,
2013-08-22 04:14:00,52.4,49.3,29.63,East,101,9.2,18.4,89,0.00,CLR,,0.00,0.0,WeatherDisplay:10.37,2013-08-21 16:14:00,
2013-08-22 04:19:00,52.4,49.3,29.63,ENE,59,8.9,17.3,89,0.00,CLR,,0.00,0.0,WeatherDisplay:10.37,2013-08-21 16:19:00,
2013-08-22 04:24:00,52.3,49.2,29.64,ENE,66,11.6,19.6,89,0.00,CLR,,0.00,0.0,WeatherDisplay:10.37,2013-08-21 16:24:00,
2013-08-22 04:29:00,52.3,49.2,29.63,NE,54,7.4,15.0,89,0.00,CLR,,0.00,0.0,WeatherDisplay:10.37,2013-08-21 16:29:00,
2013-08-22 04:34:00,52.2,49.1,29.63,NNE,17,8.7,17.3,89,0.00,CLR,,0.00,0.0,WeatherDisplay:10.37,2013-08-21 16:34:00,
2013-08-22 04:39:00,52.2,49.1,29.63,ENE,75,8.2,14.0,89,0.00,CLR,,0.00,0.0,WeatherDisplay:10.37,2013-08-21 16:39:00,
2013-08-22 04:44:00,52.2,49.1,29.63,ENE,65,10.1,20.7,89,0.00,CLR,,0.00,0.0,WeatherDisplay:10.37,2013-08-21 16:44:00,
2013-08-22 04:49:00,52.2,49.1,29.63,NE,37,9.0,16.1,89,0.00,CLR,,0.00,0.0,WeatherDisplay:10.37,2013-08-21 16:49:00,
2013-08-22 04:54:00,52.2,49.1,29.63,NE,41,10.0,11.5,89,0.00,CLR,,0.00,0.0,WeatherDisplay:10.37,2013-08-21 16:54:00,
2013-08-22 04:59:00,52.2,48.8,29.63,ENE,74,10.2,19.6,88,0.00,CLR,,0.00,0.0,WeatherDisplay:10.37,2013-08-21 16:59:00,
2013-08-22 05:04:00,52.3,48.9,29.63,ENE,67,10.2,16.1,88,0.00,CLR,,0.00,0.0,WeatherDisplay:10.37,2013-08-21 17:04:00,
2013-08-22 05:09:00,52.3,48.5,29.63,East,91,6.5,19.6,87,0.00,CLR,,0.00,0.0,WeatherDisplay:10.37,2013-08-21 17:09:00,
2013-08-22 05:14:00,52.3,48.5,29.63,East,84,12.2,18.4,87,0.00,CLR,,0.00,0.0,WeatherDisplay:10.37,2013-08-21 17:14:00,
2013-08-22 05:19:00,52.2,48.4,29.63,NNE,29,9.5,16.1,87,0.00,CLR,,0.00,0.0,WeatherDisplay:10.37,2013-08-21 17:19:00,
2013-08-22 05:24:00,52.2,48.4,29.62,NE,40,9.0,15.0,87,0.00,CLR,,0.00,0.0,WeatherDisplay:10.37,2013-08-21 17:24:00,
2013-08-22 05:29:00,52.2,48.8,29.62,ENE,71,12.1,19.6,88,0.00,CLR,,0.00,0.0,WeatherDisplay:10.37,2013-08-21 17:29:00,
2013-08-22 05:34:00,52.2,48.4,29.62,NE,53,3.8,8.1,87,0.00,CLR,,0.00,0.0,WeatherDisplay:10.37,2013-08-21 17:34:00,
2013-08-22 05:39:00,52.1,48.7,29.63,NNE,19,10.2,17.3,88,0.00,CLR,,0.00,0.0,WeatherDisplay:10.37,2013-08-21 17:39:00,
2013-08-22 05:44:00,52.1,48.7,29.62,NE,56,5.5,11.5,88,0.00,CLR,,0.00,0.0,WeatherDisplay:10.37,2013-08-21 17:44:00,
2013-08-22 05:49:00,52.0,48.6,29.62,NE,56,5.2,11.5,88,0.00,CLR,,0.00,0.0,WeatherDisplay:10.37,2013-08-21 17:49:00,
2013-08-22 05:54:00,52.0,48.6,29.62,ENE,61,6.1,12.7,88,0.00,CLR,,0.00,0.0,WeatherDisplay:10.37,2013-08-21 17:54:00,
2013-08-22 05:59:00,52.0,48.6,29.62,ENE,60,2.3,11.5,88,0.00,CLR,,0.00,0.0,WeatherDisplay:10.37,2013-08-21 17:59:00,
2013-08-22 06:04:00,51.9,48.8,29.62,ENE,65,5.1,9.2,89,0.00,CLR,,0.00,0.0,WeatherDisplay:10.37,2013-08-21 18:04:00,
2013-08-22 06:09:00,51.9,48.8,29.62,NE,52,2.1,4.6,89,0.00,CLR,,0.00,0.0,WeatherDisplay:10.37,2013-08-21 18:09:00,
2013-08-22 06:14:00,51.8,48.7,29.62,ENE,60,6.0,12.7,89,0.00,CLR,,0.00,0.0,WeatherDisplay:10.37,2013-08-21 18:14:00,
2013-08-22 06:19:00,51.8,48.7,29.62,East,83,4.4,11.5,89,0.00,CLR,,0.00,0.0,WeatherDisplay:10.37,2013-08-21 18:19:00,
2013-08-22 06:24:00,51.8,48.7,29.62,ENE,68,4.8,16.1,89,0.00,CLR,,0.00,0.0,WeatherDisplay:10.37,2013-08-21 18:24:00,
2013-08-22 06:29:00,51.8,48.7,29.62,NE,45,9.3,16.1,89,0.00,CLR,,0.00,0.0,WeatherDisplay:10.37,2013-08-21 18:29:00,
2013-08-22 06:34:00,51.8,48.4,29.61,ENE,65,6.0,15.0,88,0.00,CLR,,0.00,0.0,WeatherDisplay:10.37,2013-08-21 18:34:00,
2013-08-22 06:39:00,51.8,48.4,29.62,ENE,70,4.7,11.5,88,0.00,CLR,,0.00,0.0,WeatherDisplay:10.37,2013-08-21 18:39:00,
2013-08-22 06:44:00,51.8,48.4,29.62,NNE,30,3.8,9.0,88,0.00,CLR,,0.00,0.0,WeatherDisplay:10.37,2013-08-21 18:44:00,
2013-08-22 06:49:00,51.7,48.3,29.62,NE,39,3.7,8.1,88,0.00,CLR,,0.00,0.0,WeatherDisplay:10.37,2013-08-21 18:49:00,
2013-08-22 06:54:00,51.7,48.3,29.62,ENE,60,2.2,9.2,88,0.00,CLR,,0.00,0.0,WeatherDisplay:10.37,2013-08-21 18:54:00,
2013-08-22 06:59:00,51.7,48.3,29.62,ENE,77,3.8,8.1,88,0.00,CLR,,0.00,0.0,WeatherDisplay:10.37,2013-08-21 18:59:00,
2013-08-22 07:04:00,51.6,48.2,29.62,NE,36,4.9,11.5,88,0.00,OVC,,0.00,0.0,WeatherDisplay:10.37,2013-08-21 19:04:00,
2013-08-22 07:09:00,51.6,48.2,29.62,East,101,2.9,6.9,88,0.00,OVC,,0.00,0.0,WeatherDisplay:10.37,2013-08-21 19:09:00,
2013-08-22 07:14:00,51.6,48.2,29.63,ENE,57,3.8,5.0,88,0.00,OVC,,0.00,0.0,WeatherDisplay:10.37,2013-08-21 19:14:00,
2013-08-22 07:19:00,51.5,48.1,29.63,ENE,74,4.7,10.4,88,0.00,OVC,,0.00,0.0,WeatherDisplay:10.37,2013-08-21 19:19:00,
2013-08-22 07:24:00,51.5,48.1,29.63,ENE,74,2.1,10.4,88,0.00,FEW,,0.00,9.0,WeatherDisplay:10.37,2013-08-21 19:24:00,
2013-08-22 07:29:00,51.5,48.1,29.62,ENE,60,2.1,9.2,88,0.00,CLR,,0.00,21.0,WeatherDisplay:10.37,2013-08-21 19:29:00,
2013-08-22 07:34:00,51.5,48.1,29.62,ENE,74,3.0,4.6,88,0.00,FEW,,0.00,26.0,WeatherDisplay:10.37,2013-08-21 19:34:00,
2013-08-22 07:39:00,51.5,48.1,29.63,NE,55,2.1,8.1,88,0.00,SCT,,0.00,23.0,WeatherDisplay:10.37,2013-08-21 19:39:00,
2013-08-22 07:44:00,51.5,48.1,29.63,ENE,75,1.3,3.5,88,0.00,SCT,,0.00,25.0,WeatherDisplay:10.37,2013-08-21 19:44:00,
2013-08-22 07:49:00,51.5,48.1,29.63,East,80,3.9,5.8,88,0.00,SCT,,0.00,33.0,WeatherDisplay:10.37,2013-08-21 19:49:00,
2013-08-22 07:54:00,51.5,48.4,29.64,NE,49,1.9,4.0,89,0.00,FEW,,0.00,44.0,WeatherDisplay:10.37,2013-08-21 19:54:00,
2013-08-22 07:59:00,51.5,48.4,29.64,ENE,59,3.7,6.9,89,0.00,SCT,,0.00,47.0,WeatherDisplay:10.37,2013-08-21 19:59:00,
2013-08-22 08:04:00,51.5,48.4,29.64,ENE,67,1.7,3.5,89,0.00,SCT,,0.00,51.0,WeatherDisplay:10.37,2013-08-21 20:04:00,
2013-08-22 08:09:00,51.4,48.3,29.64,ESE,117,1.6,2.3,89,0.00,SCT,,0.00,54.0,WeatherDisplay:10.37,2013-08-21 20:09:00,
2013-08-22 08:14:00,51.4,48.3,29.63,ENE,75,3.8,8.1,89,0.00,SCT,,0.00,54.0,WeatherDisplay:10.37,2013-08-21 20:14:00,
2013-08-22 08:19:00,51.4,48.3,29.64,ENE,69,0.7,3.5,89,0.00,FEW,,0.00,118.0,WeatherDisplay:10.37,2013-08-21 20:19:00,
2013-08-22 08:24:00,51.9,48.8,29.64,ENE,69,2.2,3.5,89,0.00,FEW,,0.00,134.0,WeatherDisplay:10.37,2013-08-21 20:24:00,
2013-08-22 08:29:00,52.4,48.6,29.64,ENE,72,3.4,5.0,87,0.00,CLR,,0.00,125.0,WeatherDisplay:10.37,2013-08-21 20:29:00,
2013-08-22 08:34:00,52.7,48.6,29.64,ENE,65,4.7,9.2,86,0.00,FEW,,0.00,151.0,WeatherDisplay:10.37,2013-08-21 20:34:00,
2013-08-22 08:39:00,52.9,48.8,29.64,ENE,69,1.4,3.5,86,0.00,FEW,,0.00,148.0,WeatherDisplay:10.37,2013-08-21 20:39:00,
2013-08-22 08:44:00,53.3,48.9,29.64,ENE,74,0.3,2.3,85,0.00,CLR,,0.00,241.0,WeatherDisplay:10.37,2013-08-21 20:44:00,
2013-08-22 08:49:00,53.8,49.1,29.64,East,79,3.3,5.8,84,0.00,CLR,,0.00,195.0,WeatherDisplay:10.37,2013-08-21 20:49:00,
2013-08-22 08:54:00,54.2,49.1,29.64,ENE,69,2.3,3.5,83,0.00,CLR,,0.00,297.0,WeatherDisplay:10.37,2013-08-21 20:54:00,
2013-08-22 08:59:00,54.6,49.2,29.64,East,82,1.9,7.0,82,0.00,CLR,,0.00,322.0,WeatherDisplay:10.37,2013-08-21 20:59:00,
2013-08-22 09:04:00,54.7,49.3,29.64,East,90,4.0,6.9,82,0.00,CLR,,0.00,334.0,WeatherDisplay:10.37,2013-08-21 21:04:00,
2013-08-22 09:09:00,54.9,49.2,29.64,SE,134,2.7,7.0,81,0.00,CLR,,0.00,334.0,WeatherDisplay:10.37,2013-08-21 21:09:00,
2013-08-22 09:14:00,55.3,49.6,29.64,NE,34,1.4,5.0,81,0.00,CLR,,0.00,260.0,WeatherDisplay:10.37,2013-08-21 21:14:00,
2013-08-22 09:19:00,55.8,48.7,29.64,East,88,4.4,8.1,77,0.00,CLR,,0.00,385.0,WeatherDisplay:10.37,2013-08-21 21:19:00,
2013-08-22 09:24:00,56.3,48.1,29.64,East,88,6.6,10.4,74,0.00,CLR,,0.00,418.0,WeatherDisplay:10.37,2013-08-21 21:24:00,
2013-08-22 09:29:00,56.8,49.0,29.64,ENE,75,2.3,3.5,75,0.00,CLR,,0.00,396.0,WeatherDisplay:10.37,2013-08-21 21:29:00,
2013-08-22 09:34:00,57.3,48.3,29.64,ENE,63,2.6,4.6,72,0.00,CLR,,0.00,403.0,WeatherDisplay:10.37,2013-08-21 21:34:00,
2013-08-22 09:39:00,57.7,48.4,29.64,ENE,75,1.3,3.5,71,0.00,CLR,,0.00,411.0,WeatherDisplay:10.37,2013-08-21 21:39:00,
2013-08-22 09:44:00,57.8,47.7,29.64,ENE,70,4.8,5.8,69,0.00,CLR,,0.00,408.0,WeatherDisplay:10.37,2013-08-21 21:44:00,
2013-08-22 09:49:00,58.0,48.3,29.64,ENE,69,2.2,4.6,70,0.00,CLR,,0.00,418.0,WeatherDisplay:10.37,2013-08-21 21:49:00,
2013-08-22 09:54:00,58.6,48.5,29.65,ENE,61,2.4,3.5,69,0.00,CLR,,0.00,420.0,WeatherDisplay:10.37,2013-08-21 21:54:00,
2013-08-22 09:59:00,58.8,48.3,29.64,ENE,57,2.5,5.8,68,0.00,CLR,,0.00,424.0,WeatherDisplay:10.37,2013-08-21 21:59:00,
2013-08-22 10:04:00,58.6,48.5,29.64,East,94,4.9,8.1,69,0.00,CLR,,0.00,429.0,WeatherDisplay:10.37,2013-08-21 22:04:00,
2013-08-22 10:09:00,58.2,48.1,29.64,East,83,2.7,4.6,69,0.00,CLR,,0.00,432.0,WeatherDisplay:10.37,2013-08-21 22:09:00,
2013-08-22 10:14:00,58.2,48.1,29.64,East,80,4.0,6.9,69,0.00,CLR,,0.00,450.0,WeatherDisplay:10.37,2013-08-21 22:14:00,
2013-08-22 10:19:00,58.7,47.8,29.64,ENE,68,2.5,4.6,67,0.00,CLR,,0.00,466.0,WeatherDisplay:10.37,2013-08-21 22:19:00,
2013-08-22 10:24:00,58.9,47.2,29.64,ENE,67,4.5,8.1,65,0.00,CLR,,0.00,485.0,WeatherDisplay:10.37,2013-08-21 22:24:00,
2013-08-22 10:29:00,58.6,47.3,29.64,NE,56,6.8,10.4,66,0.00,CLR,,0.00,513.0,WeatherDisplay:10.37,2013-08-21 22:29:00,
2013-08-22 10:34:00,58.4,47.5,29.64,ENE,73,6.7,10.4,67,0.00,CLR,,0.00,443.0,WeatherDisplay:10.37,2013-08-21 22:34:00,
2013-08-22 10:39:00,58.5,48.7,29.64,East,83,2.5,5.8,70,0.00,CLR,,0.00,554.0,WeatherDisplay:10.37,2013-08-21 22:39:00,
2013-08-22 10:44:00,59.2,49.0,29.64,East,83,4.0,8.1,69,0.00,CLR,,0.00,564.0,WeatherDisplay:10.37,2013-08-21 22:44:00,
2013-08-22 10:49:00,59.5,48.5,29.64,East,94,4.5,6.9,67,0.00,CLR,,0.00,443.0,WeatherDisplay:10.37,2013-08-21 22:49:00,
2013-08-22 10:54:00,59.5,48.1,29.64,ENE,75,4.8,10.4,66,0.00,CLR,,0.00,594.0,WeatherDisplay:10.37,2013-08-21 22:54:00,
2013-08-22 10:59:00,60.0,48.6,29.64,East,80,5.5,9.2,66,0.00,CLR,,0.00,221.0,WeatherDisplay:10.37,2013-08-21 22:59:00,
2013-08-22 11:04:00,59.6,48.2,29.64,ENE,63,4.2,10.0,66,0.00,FEW,,0.00,246.0,WeatherDisplay:10.37,2013-08-21 23:04:00,
2013-08-22 11:09:00,58.9,48.0,29.64,ENE,59,2.5,9.0,67,0.00,SCT,,0.00,243.0,WeatherDisplay:10.37,2013-08-21 23:09:00,
2013-08-22 11:14:00,59.1,48.1,29.64,ENE,69,5.6,9.2,67,0.00,FEW,,0.00,397.0,WeatherDisplay:10.37,2013-08-21 23:14:00,
2013-08-22 11:19:00,58.9,48.0,29.64,ENE,77,5.8,9.2,67,0.00,FEW,,0.00,320.0,WeatherDisplay:10.37,2013-08-21 23:19:00,
2013-08-22 11:24:00,59.0,48.4,29.64,NE,55,3.2,6.9,68,0.00,FEW,,0.00,318.0,WeatherDisplay:10.37,2013-08-21 23:24:00,
2013-08-22 11:29:00,59.2,48.2,29.64,ENE,78,5.9,11.5,67,0.00,FEW,,0.00,554.0,WeatherDisplay:10.37,2013-08-21 23:29:00,
2013-08-22 11:34:00,60.0,48.2,29.64,NNE,33,2.9,6.9,65,0.00,FEW,,0.00,461.0,WeatherDisplay:10.37,2013-08-21 23:34:00,
2013-08-22 11:39:00,60.9,48.2,29.63,ENE,78,4.8,11.5,63,0.00,CLR,,0.00,466.0,WeatherDisplay:10.37,2013-08-21 23:39:00,
2013-08-22 11:44:00,61.3,47.7,29.63,ENE,57,5.1,11.5,61,0.00,CLR,,0.00,745.0,WeatherDisplay:10.37,2013-08-21 23:44:00,
2013-08-22 11:49:00,61.7,47.2,29.63,East,88,5.3,10.0,59,0.00,CLR,,0.00,684.0,WeatherDisplay:10.37,2013-08-21 23:49:00,
2013-08-22 11:54:00,62.3,47.3,29.63,East,82,4.2,9.2,58,0.00,CLR,,0.00,652.0,WeatherDisplay:10.37,2013-08-21 23:54:00,
2013-08-22 11:59:00,62.7,46.8,29.63,ENE,64,4.8,9.2,56,0.00,CLR,,0.00,633.0,WeatherDisplay:10.37,2013-08-21 23:59:00,
2013-08-22 12:04:00,62.7,46.8,29.63,ENE,72,4.8,8.1,56,0.00,CLR,,0.00,617.0,WeatherDisplay:10.37,2013-08-22 00:04:00,
2013-08-22 12:09:00,62.4,47.0,29.63,ENE,77,3.6,11.0,57,0.00,CLR,,0.00,603.0,WeatherDisplay:10.37,2013-08-22 00:09:00,
2013-08-22 12:14:00,62.1,46.2,29.63,ENE,68,5.6,13.8,56,0.00,CLR,,0.00,592.0,WeatherDisplay:10.37,2013-08-22 00:14:00,
2013-08-22 12:19:00,61.8,46.4,29.63,ENE,61,5.9,11.5,57,0.00,CLR,,0.00,584.0,WeatherDisplay:10.37,2013-08-22 00:19:00,
2013-08-22 12:24:00,61.9,46.5,29.63,ENE,67,5.2,9.2,57,0.00,CLR,,0.00,585.0,WeatherDisplay:10.37,2013-08-22 00:24:00,
2013-08-22 12:29:00,62.3,46.4,29.62,NNE,30,4.2,8.1,56,0.00,CLR,,0.00,589.0,WeatherDisplay:10.37,2013-08-22 00:29:00,
2013-08-22 12:34:00,62.5,46.1,29.62,North,355,3.4,11.5,55,0.00,CLR,,0.00,592.0,WeatherDisplay:10.37,2013-08-22 00:34:00,
2013-08-22 12:39:00,62.5,46.1,29.62,ENE,63,4.4,9.2,55,0.00,CLR,,0.00,399.0,WeatherDisplay:10.37,2013-08-22 00:39:00,
2013-08-22 12:44:00,63.0,46.6,29.62,ENE,61,4.1,5.8,55,0.00,CLR,,0.00,598.0,WeatherDisplay:10.37,2013-08-22 00:44:00,
2013-08-22 12:49:00,63.3,45.4,29.62,North,355,4.6,8.0,52,0.00,CLR,,0.00,587.0,WeatherDisplay:10.37,2013-08-22 00:49:00,
2013-08-22 12:54:00,63.4,46.0,29.62,ENE,65,7.3,11.5,53,0.00,CLR,,0.00,577.0,WeatherDisplay:10.37,2013-08-22 00:54:00,
2013-08-22 12:59:00,63.5,46.6,29.62,ENE,74,3.1,6.9,54,0.00,CLR,,0.00,571.0,WeatherDisplay:10.37,2013-08-22 00:59:00,
2013-08-22 13:04:00,63.5,45.6,29.61,NNE,22,3.4,9.2,52,0.00,CLR,,0.00,568.0,WeatherDisplay:10.37,2013-08-22 01:04:00,
2013-08-22 13:09:00,63.2,45.8,29.61,NE,52,7.4,12.7,53,0.00,CLR,,0.00,566.0,WeatherDisplay:10.37,2013-08-22 01:09:00,
2013-08-22 13:14:00,63.3,45.4,29.61,ENE,69,6.7,11.5,52,0.00,CLR,,0.00,563.0,WeatherDisplay:10.37,2013-08-22 01:14:00,
2013-08-22 13:19:00,63.3,44.9,29.61,NE,36,6.8,12.7,51,0.00,CLR,,0.00,557.0,WeatherDisplay:10.37,2013-08-22 01:19:00,
2013-08-22 13:24:00,63.6,45.6,29.61,ENE,68,5.1,8.1,52,0.00,CLR,,0.00,554.0,WeatherDisplay:10.37,2013-08-22 01:24:00,
2013-08-22 13:29:00,63.3,47.3,29.61,ENE,71,4.5,10.0,56,0.00,CLR,,0.00,547.0,WeatherDisplay:10.37,2013-08-22 01:29:00,
2013-08-22 13:34:00,62.9,47.4,29.61,ESE,108,4.3,10.4,57,0.00,CLR,,0.00,541.0,WeatherDisplay:10.37,2013-08-22 01:34:00,
2013-08-22 13:39:00,62.2,47.7,29.61,NE,55,6.0,10.4,59,0.00,CLR,,0.00,538.0,WeatherDisplay:10.37,2013-08-22 01:39:00,
2013-08-22 13:44:00,61.3,48.6,29.60,ESE,102,6.1,10.4,63,0.00,CLR,,0.00,529.0,WeatherDisplay:10.37,2013-08-22 01:44:00,
2013-08-22 13:49:00,60.2,48.4,29.60,East,86,6.2,8.1,65,0.00,CLR,,0.00,524.0,WeatherDisplay:10.37,2013-08-22 01:49:00,
2013-08-22 13:54:00,60.0,49.0,29.61,ENE,74,5.2,9.2,67,0.00,CLR,,0.00,520.0,WeatherDisplay:10.37,2013-08-22 01:54:00,
2013-08-22 13:59:00,60.1,48.7,29.61,ENE,72,4.9,12.7,66,0.00,CLR,,0.00,512.0,WeatherDisplay:10.37,2013-08-22 01:59:00,
2013-08-22 14:04:00,59.8,48.8,29.60,ESE,103,5.1,9.2,67,0.00,CLR,,0.00,508.0,WeatherDisplay:10.37,2013-08-22 02:04:00,
2013-08-22 14:09:00,59.6,49.0,29.60,ESE,119,1.0,3.5,68,0.00,CLR,,0.00,496.0,WeatherDisplay:10.37,2013-08-22 02:09:00,
2013-08-22 14:14:00,59.8,49.2,29.60,ESE,108,3.4,9.2,68,0.00,CLR,,0.00,489.0,WeatherDisplay:10.37,2013-08-22 02:14:00,
2013-08-22 14:19:00,59.5,49.3,29.60,East,88,5.8,10.4,69,0.00,CLR,,0.00,482.0,WeatherDisplay:10.37,2013-08-22 02:19:00,
2013-08-22 14:24:00,59.7,49.5,29.60,NE,43,4.6,10.4,69,0.00,CLR,,0.00,473.0,WeatherDisplay:10.37,2013-08-22 02:24:00,
2013-08-22 14:29:00,59.6,49.4,29.61,East,92,3.9,9.2,69,0.00,CLR,,0.00,464.0,WeatherDisplay:10.37,2013-08-22 02:29:00,
2013-08-22 14:34:00,59.8,49.6,29.60,ESE,118,6.0,8.1,69,0.00,CLR,,0.00,455.0,WeatherDisplay:10.37,2013-08-22 02:34:00,
2013-08-22 14:39:00,59.5,49.3,29.60,SE,126,6.7,9.2,69,0.00,CLR,,0.00,446.0,WeatherDisplay:10.37,2013-08-22 02:39:00,
2013-08-22 14:44:00,59.4,49.2,29.60,East,99,1.4,8.1,69,0.00,CLR,,0.00,439.0,WeatherDisplay:10.37,2013-08-22 02:44:00,
2013-08-22 14:49:00,59.6,49.4,29.60,ENE,57,4.9,9.2,69,0.00,CLR,,0.00,431.0,WeatherDisplay:10.37,2013-08-22 02:49:00,
2013-08-22 14:54:00,59.8,49.2,29.61,East,79,2.0,3.5,68,0.00,CLR,,0.00,418.0,WeatherDisplay:10.37,2013-08-22 02:54:00,
2013-08-22 14:59:00,59.7,48.7,29.61,SE,127,6.2,10.4,67,0.00,CLR,,0.00,410.0,WeatherDisplay:10.37,2013-08-22 02:59:00,
2013-08-22 15:04:00,59.3,49.1,29.60,ESE,103,1.1,5.8,69,0.00,CLR,,0.00,404.0,WeatherDisplay:10.37,2013-08-22 03:04:00,
2013-08-22 15:09:00,59.7,49.1,29.60,ENE,62,3.3,9.0,68,0.00,CLR,,0.00,396.0,WeatherDisplay:10.37,2013-08-22 03:09:00,
2013-08-22 15:14:00,59.6,48.6,29.60,ESE,115,4.8,9.2,67,0.00,CLR,,0.00,360.0,WeatherDisplay:10.37,2013-08-22 03:14:00,
2013-08-22 15:19:00,59.4,48.8,29.60,ESE,106,2.0,4.6,68,0.00,CLR,,0.00,366.0,WeatherDisplay:10.37,2013-08-22 03:19:00,
2013-08-22 15:24:00,59.4,48.8,29.60,East,87,2.9,5.8,68,0.00,CLR,,0.00,360.0,WeatherDisplay:10.37,2013-08-22 03:24:00,
2013-08-22 15:29:00,59.4,49.2,29.60,SE,132,3.7,5.8,69,0.00,CLR,,0.00,338.0,WeatherDisplay:10.37,2013-08-22 03:29:00,
2013-08-22 15:34:00,59.3,49.1,29.60,ENE,57,1.6,3.0,69,0.00,CLR,,0.00,304.0,WeatherDisplay:10.37,2013-08-22 03:34:00,
2013-08-22 15:39:00,59.0,48.4,29.60,East,84,2.7,3.5,68,0.00,FEW,,0.00,86.0,WeatherDisplay:10.37,2013-08-22 03:39:00,
2013-08-22 15:44:00,58.4,49.0,29.61,ESE,118,2.8,5.8,71,0.00,BKN,,0.00,46.0,WeatherDisplay:10.37,2013-08-22 03:44:00,
2013-08-22 15:49:00,57.7,49.1,29.61,ESE,103,0.0,1.2,73,0.00,BKN,,0.00,58.0,WeatherDisplay:10.37,2013-08-22 03:49:00,
2013-08-22 15:54:00,57.5,48.9,29.61,ESE,104,1.0,2.3,73,0.00,BKN,,0.00,255.0,WeatherDisplay:10.37,2013-08-22 03:54:00,
2013-08-22 15:59:00,57.7,49.1,29.61,ESE,104,1.8,3.5,73,0.00,FEW,,0.00,304.0,WeatherDisplay:10.37,2013-08-22 03:59:00,
2013-08-22 16:01:00,57.9,49.3,29.61,ESE,103,2.1,3.5,73,0.00,CLR,,0.00,302.0,WeatherDisplay:10.37,2013-08-22 04:01:00,
2013-08-22 16:02:00,58.1,49.5,29.61,ESE,104,0.9,3.5,73,0.00,CLR,,0.00,297.0,WeatherDisplay:10.37,2013-08-22 04:02:00,
2013-08-22 16:03:00,58.1,49.5,29.61,ESE,104,0.8,3.5,73,0.00,CLR,,0.00,297.0,WeatherDisplay:10.37,2013-08-22 04:03:00,
2013-08-22 16:08:00,58.5,49.1,29.61,ESE,104,1.0,3.5,71,0.00,CLR,,0.00,272.0,WeatherDisplay:10.37,2013-08-22 04:08:00,
2013-08-22 16:13:00,58.9,49.1,29.61,ESE,103,1.1,3.5,70,0.00,CLR,,0.00,221.0,WeatherDisplay:10.37,2013-08-22 04:13:00,
2013-08-22 16:18:00,59.2,49.0,29.61,ESE,103,0.1,1.0,69,0.00,CLR,,0.00,213.0,WeatherDisplay:10.37,2013-08-22 04:18:00,
2013-08-22 16:23:00,59.5,48.9,29.61,ESE,104,1.0,3.5,68,0.00,CLR,,0.00,148.0,WeatherDisplay:10.37,2013-08-22 04:23:00,
2013-08-22 16:28:00,59.6,49.0,29.61,ESE,103,0.3,2.3,68,0.00,FEW,,0.00,113.0,WeatherDisplay:10.37,2013-08-22 04:28:00,
2013-08-22 16:33:00,59.4,48.8,29.61,ESE,104,0.1,1.2,68,0.00,FEW,,0.00,77.0,WeatherDisplay:10.37,2013-08-22 04:33:00,
2013-08-22 16:38:00,59.0,48.1,29.61,ESE,103,2.8,3.5,67,0.00,SCT,,0.00,46.0,WeatherDisplay:10.37,2013-08-22 04:38:00,
2013-08-22 16:43:00,58.5,48.0,29.61,ESE,103,1.2,3.5,68,0.00,BKN,,0.00,49.0,WeatherDisplay:10.37,2013-08-22 04:43:00,
2013-08-22 16:48:00,58.3,48.2,29.61,ESE,103,0.0,0.0,69,0.00,BKN,,0.00,74.0,WeatherDisplay:10.37,2013-08-22 04:48:00,
2013-08-22 16:53:00,58.1,48.0,29.61,ESE,103,0.7,2.3,69,0.00,BKN,,0.00,49.0,WeatherDisplay:10.37,2013-08-22 04:53:00,
2013-08-22 16:58:00,58.0,47.9,29.61,ESE,103,0.0,0.0,69,0.00,BKN,,0.00,47.0,WeatherDisplay:10.37,2013-08-22 04:58:00,
2013-08-22 17:03:00,57.9,47.8,29.61,ESE,103,0.6,3.5,69,0.00,SCT,,0.00,46.0,WeatherDisplay:10.37,2013-08-22 05:03:00,
2013-08-22 17:08:00,57.7,47.6,29.61,ESE,103,0.2,1.2,69,0.00,SCT,,0.00,42.0,WeatherDisplay:10.37,2013-08-22 05:08:00,
2013-08-22 17:13:00,57.5,47.4,29.61,ESE,103,1.4,3.5,69,0.00,SCT,,0.00,39.0,WeatherDisplay:10.37,2013-08-22 05:13:00,
2013-08-22 17:18:00,57.4,47.7,29.61,ESE,103,0.0,1.0,70,0.00,SCT,,0.00,35.0,WeatherDisplay:10.37,2013-08-22 05:18:00,
2013-08-22 17:23:00,57.3,47.6,29.61,ESE,103,0.0,0.0,70,0.00,SCT,,0.00,32.0,WeatherDisplay:10.37,2013-08-22 05:23:00,
2013-08-22 17:28:00,57.1,47.4,29.61,ESE,103,0.0,0.0,70,0.00,SCT,,0.00,26.0,WeatherDisplay:10.37,2013-08-22 05:28:00,
2013-08-22 17:33:00,57.0,47.7,29.61,ESE,103,0.0,0.0,71,0.00,SCT,,0.00,21.0,WeatherDisplay:10.37,2013-08-22 05:33:00,
2013-08-22 17:38:00,56.9,47.6,29.62,ESE,103,0.0,0.0,71,0.00,SCT,,0.00,14.0,WeatherDisplay:10.37,2013-08-22 05:38:00,
2013-08-22 17:43:00,56.7,47.4,29.61,ESE,103,0.0,0.0,71,0.00,BKN,,0.00,9.0,WeatherDisplay:10.37,2013-08-22 05:43:00,
2013-08-22 17:48:00,56.5,47.2,29.62,ESE,103,0.0,0.0,71,0.00,BKN,,0.00,5.0,WeatherDisplay:10.37,2013-08-22 05:48:00,
2013-08-22 17:53:00,56.3,47.8,29.62,ESE,103,0.0,0.0,73,0.00,OVC,,0.00,0.0,WeatherDisplay:10.37,2013-08-22 05:53:00,
2013-08-22 17:58:00,56.0,47.5,29.62,ESE,103,0.0,0.0,73,0.00,OVC,,0.00,0.0,WeatherDisplay:10.37,2013-08-22 05:58:00,
2013-08-22 18:03:00,55.6,46.7,29.62,ESE,103,0.2,1.2,72,0.00,CLR,,0.00,0.0,WeatherDisplay:10.37,2013-08-22 06:03:00,
2013-08-22 18:08:00,55.6,45.6,29.62,ESE,103,0.0,0.0,69,0.00,CLR,,0.00,0.0,WeatherDisplay:10.37,2013-08-22 06:08:00,
2013-08-22 18:13:00,55.7,44.9,29.62,ESE,103,0.2,1.2,67,0.00,CLR,,0.00,0.0,WeatherDisplay:10.37,2013-08-22 06:13:00,
2013-08-22 18:18:00,55.8,44.6,29.62,ESE,103,0.1,1.0,66,0.00,CLR,,0.00,0.0,WeatherDisplay:10.37,2013-08-22 06:18:00,
2013-08-22 18:23:00,55.7,44.1,29.62,ESE,103,0.0,0.0,65,0.00,CLR,,0.00,0.0,WeatherDisplay:10.37,2013-08-22 06:23:00,
2013-08-22 18:28:00,55.5,44.3,29.62,ESE,103,0.0,0.0,66,0.00,CLR,,0.00,0.0,WeatherDisplay:10.37,2013-08-22 06:28:00,
2013-08-22 18:33:00,55.2,43.6,29.63,ESE,103,0.0,0.0,65,0.00,CLR,,0.00,0.0,WeatherDisplay:10.37,2013-08-22 06:33:00,
2013-08-22 18:38:00,54.8,42.9,29.63,ESE,103,0.0,0.0,64,0.00,CLR,,0.00,0.0,WeatherDisplay:10.37,2013-08-22 06:38:00,
2013-08-22 18:43:00,54.6,43.9,29.63,ESE,103,0.0,0.0,67,0.00,CLR,,0.00,0.0,WeatherDisplay:10.37,2013-08-22 06:43:00,
2013-08-22 18:48:00,54.0,44.1,29.63,ESE,103,0.0,0.0,69,0.00,CLR,,0.00,0.0,WeatherDisplay:10.37,2013-08-22 06:48:00,
2013-08-22 18:53:00,53.6,43.7,29.63,ESE,103,0.0,0.0,69,0.00,CLR,,0.00,0.0,WeatherDisplay:10.37,2013-08-22 06:53:00,
2013-08-22 18:58:00,53.3,43.8,29.63,ESE,103,0.0,0.0,70,0.00,CLR,,0.00,0.0,WeatherDisplay:10.37,2013-08-22 06:58:00,
2013-08-22 19:03:00,52.9,43.4,29.63,ESE,103,0.0,0.0,70,0.00,CLR,,0.00,0.0,WeatherDisplay:10.37,2013-08-22 07:03:00,
2013-08-22 19:08:00,52.8,43.3,29.64,ESE,103,0.0,0.0,70,0.00,CLR,,0.00,0.0,WeatherDisplay:10.37,2013-08-22 07:08:00,
2013-08-22 19:13:00,52.8,43.3,29.64,ESE,103,0.0,0.0,70,0.00,CLR,,0.00,0.0,WeatherDisplay:10.37,2013-08-22 07:13:00,
2013-08-22 19:18:00,52.7,43.6,29.64,ESE,103,0.0,0.0,71,0.00,CLR,,0.00,0.0,WeatherDisplay:10.37,2013-08-22 07:18:00,
2013-08-22 19:23:00,52.5,43.4,29.64,ESE,103,0.0,0.0,71,0.00,CLR,,0.00,0.0,WeatherDisplay:10.37,2013-08-22 07:23:00,
2013-08-22 19:28:00,52.2,43.4,29.64,ESE,103,0.0,0.0,72,0.00,CLR,,0.00,0.0,WeatherDisplay:10.37,2013-08-22 07:28:00,
2013-08-22 19:33:00,51.9,43.5,29.64,ESE,103,0.0,0.0,73,0.00,CLR,,0.00,0.0,WeatherDisplay:10.37,2013-08-22 07:33:00,
2013-08-22 19:38:00,51.5,43.5,29.64,ESE,103,0.0,0.0,74,0.00,CLR,,0.00,0.0,WeatherDisplay:10.37,2013-08-22 07:38:00,
2013-08-22 19:43:00,51.2,43.2,29.64,ESE,103,0.0,0.0,74,0.00,CLR,,0.00,0.0,WeatherDisplay:10.37,2013-08-22 07:43:00,
2013-08-22 19:48:00,51.0,43.4,29.64,ESE,103,0.0,0.0,75,0.00,CLR,,0.00,0.0,WeatherDisplay:10.37,2013-08-22 07:48:00,
2013-08-22 19:53:00,50.7,43.1,29.65,ESE,103,0.0,0.0,75,0.00,CLR,,0.00,0.0,WeatherDisplay:10.37,2013-08-22 07:53:00,
2013-08-22 19:58:00,50.6,43.3,29.64,ESE,103,0.0,0.0,76,0.00,CLR,,0.00,0.0,WeatherDisplay:10.37,2013-08-22 07:58:00,
2013-08-22 20:03:00,50.5,43.2,29.64,ESE,103,0.0,0.0,76,0.00,CLR,,0.00,0.0,WeatherDisplay:10.37,2013-08-22 08:03:00,
2013-08-22 20:08:00,50.4,43.1,29.65,ESE,103,0.0,0.0,76,0.00,CLR,,0.00,0.0,WeatherDisplay:10.37,2013-08-22 08:08:00,
2013-08-22 20:13:00,50.4,43.1,29.65,ESE,103,0.0,0.0,76,0.00,CLR,,0.00,0.0,WeatherDisplay:10.37,2013-08-22 08:13:00,
2013-08-22 20:18:00,50.5,43.2,29.65,ESE,103,0.0,0.0,76,0.00,CLR,,0.00,0.0,WeatherDisplay:10.37,2013-08-22 08:18:00,
2013-08-22 20:23:00,50.3,43.0,29.65,ESE,103,0.0,0.0,76,0.00,CLR,,0.00,0.0,WeatherDisplay:10.37,2013-08-22 08:23:00,
2013-08-22 20:28:00,50.4,43.1,29.65,ESE,103,0.0,0.0,76,0.00,CLR,,0.00,0.0,WeatherDisplay:10.37,2013-08-22 08:28:00,
2013-08-22 20:33:00,50.8,42.5,29.66,ESE,103,0.3,3.5,73,0.00,CLR,,0.00,0.0,WeatherDisplay:10.37,2013-08-22 08:33:00,
2013-08-22 20:38:00,51.1,42.4,29.66,ESE,103,0.0,1.2,72,0.00,CLR,,0.00,0.0,WeatherDisplay:10.37,2013-08-22 08:38:00,
2013-08-22 20:43:00,51.3,42.6,29.66,ESE,103,0.0,0.0,72,0.00,CLR,,0.00,0.0,WeatherDisplay:10.37,2013-08-22 08:43:00,
2013-08-22 20:48:00,51.2,42.8,29.66,ESE,103,0.0,0.0,73,0.00,CLR,,0.00,0.0,WeatherDisplay:10.37,2013-08-22 08:48:00,
2013-08-22 20:53:00,50.9,42.9,29.66,ESE,103,0.0,0.0,74,0.00,CLR,,0.00,0.0,WeatherDisplay:10.37,2013-08-22 08:53:00,
2013-08-22 20:58:00,50.5,42.9,29.66,ESE,103,0.0,0.0,75,0.00,CLR,,0.00,0.0,WeatherDisplay:10.37,2013-08-22 08:58:00,
2013-08-22 21:03:00,50.1,42.8,29.66,ESE,103,0.0,0.0,76,0.00,CLR,,0.00,0.0,WeatherDisplay:10.37,2013-08-22 09:03:00,
2013-08-22 21:08:00,49.9,43.0,29.66,ESE,103,0.0,0.0,77,0.00,CLR,,0.00,0.0,WeatherDisplay:10.37,2013-08-22 09:08:00,
2013-08-22 21:13:00,49.8,42.9,29.66,ESE,103,0.0,0.0,77,0.00,CLR,,0.00,0.0,WeatherDisplay:10.37,2013-08-22 09:13:00,
2013-08-22 21:18:00,49.7,42.8,29.66,ESE,103,0.0,0.0,77,0.00,CLR,,0.00,0.0,WeatherDisplay:10.37,2013-08-22 09:18:00,
2013-08-22 21:23:00,49.5,42.6,29.66,ESE,103,0.0,0.0,77,0.00,CLR,,0.00,0.0,WeatherDisplay:10.37,2013-08-22 09:23:00,
2013-08-22 21:28:00,49.4,42.5,29.67,ESE,103,0.0,0.0,77,0.00,CLR,,0.00,0.0,WeatherDisplay:10.37,2013-08-22 09:28:00,
2013-08-22 21:33:00,49.3,42.7,29.67,ESE,103,0.0,0.0,78,0.00,CLR,,0.00,0.0,WeatherDisplay:10.37,2013-08-22 09:33:00,
2013-08-22 21:38:00,49.2,42.6,29.67,ESE,103,0.0,0.0,78,0.00,CLR,,0.00,0.0,WeatherDisplay:10.37,2013-08-22 09:38:00,
2013-08-22 21:43:00,49.1,42.5,29.67,ESE,103,0.0,0.0,78,0.00,CLR,,0.00,0.0,WeatherDisplay:10.37,2013-08-22 09:43:00,
2013-08-22 21:48:00,49.1,42.5,29.67,ESE,103,0.0,0.0,78,0.00,CLR,,0.00,0.0,WeatherDisplay:10.37,2013-08-22 09:48:00,
2013-08-22 21:53:00,49.1,42.5,29.67,ESE,103,0.0,0.0,78,0.00,CLR,,0.00,0.0,WeatherDisplay:10.37,2013-08-22 09:53:00,
2013-08-22 21:58:00,48.8,42.6,29.67,ESE,103,0.0,0.0,79,0.00,CLR,,0.00,0.0,WeatherDisplay:10.37,2013-08-22 09:58:00,
2013-08-22 22:03:00,48.5,42.6,29.67,ESE,103,0.0,0.0,80,0.00,CLR,,0.00,0.0,WeatherDisplay:10.37,2013-08-22 10:03:00,
2013-08-22 22:08:00,48.3,42.4,29.67,ESE,103,0.0,0.0,80,0.00,CLR,,0.00,0.0,WeatherDisplay:10.37,2013-08-22 10:08:00,
2013-08-22 22:14:00,48.3,42.4,29.67,ESE,103,0.0,0.0,80,0.00,CLR,,0.00,0.0,WeatherDisplay:10.37,2013-08-22 10:14:00,
2013-08-22 22:19:00,48.5,42.6,29.67,ESE,103,0.0,0.0,80,0.00,CLR,,0.00,0.0,WeatherDisplay:10.37,2013-08-22 10:19:00,
2013-08-22 22:24:00,48.5,42.6,29.67,ESE,103,0.0,0.0,80,0.00,CLR,,0.00,0.0,WeatherDisplay:10.37,2013-08-22 10:24:00,
2013-08-22 22:29:00,48.6,42.7,29.67,ESE,103,0.0,0.0,80,0.00,CLR,,0.00,0.0,WeatherDisplay:10.37,2013-08-22 10:29:00,
2013-08-22 22:34:00,48.6,42.7,29.67,ESE,103,0.3,0.0,80,0.00,CLR,,0.00,0.0,WeatherDisplay:10.37,2013-08-22 10:34:00,
2013-08-22 22:39:00,48.5,42.6,29.67,ESE,103,0.0,0.0,80,0.00,CLR,,0.00,0.0,WeatherDisplay:10.37,2013-08-22 10:39:00,
2013-08-22 22:44:00,48.4,42.5,29.67,ESE,103,0.0,0.0,80,0.00,CLR,,0.00,0.0,WeatherDisplay:10.37,2013-08-22 10:44:00,
2013-08-22 22:49:00,48.4,42.5,29.67,ESE,103,0.0,0.0,80,0.00,CLR,,0.00,0.0,WeatherDisplay:10.37,2013-08-22 10:49:00,